Regional Weather Roundup
Issued by NWS

Home | Current Version | Previous Version | Text Only | Print | Product List | Glossary Off
Versions: 1 2 3 4 5 6 7 8 9 10 11 12 13 14 15 16 17 18 19 20 21 22 23 24 25 26 27 28 29 30 31 32 33 34 35 36 37 38 39 40 41 42 43 44 45 46 47 48 49 50

000
ASUS44 KMEG 282100
RWRTN
TENNESSEE HOURLY STATE WEATHER ROUNDUP
NATIONAL WEATHER SERVICE MEMPHIS TN
400 PM CDT MON JUL 28 2014

TNZ002-004-019-021-049-052-054-088>092-282200-
WEST TENNESSEE

CITY           SKY/WX    TMP DP  RH WIND       PRES   REMARKS
MEMPHIS INTL   MOSUNNY   85  62  46 N12       30.04F
NWS MEMPHIS      N/A     84 N/A N/A MISG        N/A
JACKSON        MOSUNNY   84  62  47 NW12      30.03F
DYERSBURG      MOSUNNY   81  57  44 NW8G17    30.05F
UNION CITY     MOSUNNY   81  63  54 NW17      30.03F
PARIS          MOSUNNY   79  63  57 N9        30.04F
LEXINGTON      MOSUNNY   81  63  54 N9        30.02F
SAVANNAH       MOSUNNY   82  64  54 N10       30.03S
$$

TNZ008-025-027-028-033-062-065-066-282200-
NORTH MIDDLE TENNESSEE

CITY           SKY/WX    TMP DP  RH WIND       PRES   REMARKS
NASHVILLE      PTSUNNY   82  59  45 N12G17    29.99F
CLARKSVILLE    PTSUNNY   81  58  45 N14       30.01S
COOKEVILLE     PTSUNNY   79  64  61 N7        29.99F
CROSSVILLE     MOSUNNY   75  58  55 NW10      30.02F
$$

TNZ061-075-076-078-094-096-097-282200-
SOUTH MIDDLE TENNESSEE

CITY           SKY/WX    TMP DP  RH WIND       PRES   REMARKS
FAYETTEVILLE   MOSUNNY   81  59  47 NW9       30.00S
WINCHESTER     MOSUNNY   81  61  50 NW12      30.00S
SHELBYVILLE    MOSUNNY   82  64  54 NW13      30.00F
$$

TNZ017-018-042-046-047-282200-
NORTHEAST TENNESSEE

CITY           SKY/WX    TMP DP  RH WIND       PRES   REMARKS
TRI CITIES     PTSUNNY   76  57  51 W12       29.95S
ELIZABETHTON   CLOUDY    73  59  60 VRB7        N/A
$$

TNZ012-013-036-069-073-074-282200-
CENTRAL EAST TENNESSEE

CITY           SKY/WX    TMP DP  RH WIND       PRES   REMARKS
KNOXVILLE      PTSUNNY   79  60  52 VRB3      29.95S
OAK RIDGE      CLOUDY    81  58  45 VRB5      29.97S
GATLINBURG     PTCLDY    79  61  53 NW8       29.95S
$$

TNZ083-085-099-282200-
SOUTHEAST TENNESSEE

CITY           SKY/WX    TMP DP  RH WIND       PRES   REMARKS
CHATTANOOGA    MOSUNNY   85  58  39 N14       29.96F
$$

SKY/WX REPORTED AS FAIR MEANS FEW OR NO CLOUDS BELOW
12 THOUSAND FEET.




USA.gov is the U.S. government's official web portal to all federal, state and local government web resources and services.